TimeEST,TemperatureF,Dew PointF,Humidity,Sea Level PressureIn,VisibilityMPH,Wind Direction,Wind SpeedMPH,Gust SpeedMPH,PrecipitationIn,Events,Conditions,WindDirDegrees,DateUTC
12:53 AM,62.1,37.0,39,29.96,10.0,South,18.4,26.5,N/A,,Mostly Cloudy,180,2012-11-12 05:53:00
1:53 AM,62.1,39.9,44,29.95,10.0,South,15.0,-,N/A,,Overcast,180,2012-11-12 06:53:00
2:53 AM,60.1,48.0,64,29.94,10.0,SSW,18.4,31.1,0.00,Rain,Light Rain,200,2012-11-12 07:53:00
3:53 AM,57.9,52.0,81,29.94,7.0,SSW,17.3,31.1,0.07,Rain,Rain,200,2012-11-12 08:53:00
4:53 AM,57.9,52.0,81,29.91,10.0,SSW,16.1,26.5,0.04,Rain,Light Rain,200,2012-11-12 09:53:00
5:17 AM,57.2,51.8,82,29.94,10.0,SSW,19.6,24.2,0.01,Rain,Light Rain,200,2012-11-12 10:17:00
5:28 AM,57.2,51.8,82,29.94,10.0,SSW,17.3,-,0.01,Rain,Light Rain,200,2012-11-12 10:28:00
5:53 AM,57.9,52.0,81,29.91,8.0,South,20.7,28.8,0.04,Rain,Light Rain,180,2012-11-12 10:53:00
6:20 AM,57.2,51.8,82,29.91,7.0,South,18.4,28.8,0.03,Rain,Light Rain,180,2012-11-12 11:20:00
6:53 AM,57.9,53.1,84,29.89,8.0,South,17.3,26.5,0.07,Rain,Light Rain,190,2012-11-12 11:53:00
7:04 AM,57.2,53.6,88,29.90,7.0,South,17.3,26.5,0.02,Rain,Light Rain,190,2012-11-12 12:04:00
7:19 AM,57.2,51.8,82,29.91,4.0,WSW,11.5,21.9,0.07,Rain,Rain,240,2012-11-12 12:19:00
7:26 AM,55.4,51.8,88,29.91,7.0,WSW,15.0,-,0.08,Rain,Light Rain,240,2012-11-12 12:26:00
7:53 AM,55.0,51.1,86,29.91,8.0,SW,10.4,-,0.12,Rain,Light Rain,230,2012-11-12 12:53:00
8:33 AM,55.4,51.8,88,29.94,2.5,SW,8.1,-,0.02,Rain,Light Rain,220,2012-11-12 13:33:00
8:53 AM,55.0,51.1,86,29.93,3.0,SW,9.2,-,0.06,Rain,Rain,230,2012-11-12 13:53:00
9:04 AM,53.6,50.0,88,29.93,9.0,SW,6.9,-,0.01,Rain,Light Rain,220,2012-11-12 14:04:00
9:26 AM,53.6,48.2,82,29.94,7.0,West,13.8,20.7,0.01,Rain,Light Rain,280,2012-11-12 14:26:00
9:41 AM,50.0,44.6,82,29.96,8.0,West,17.3,24.2,0.01,Rain,Light Rain,270,2012-11-12 14:41:00
9:48 AM,50.0,44.6,82,29.96,10.0,West,16.1,24.2,0.02,Rain,Light Rain,270,2012-11-12 14:48:00
9:53 AM,50.0,44.1,80,29.96,10.0,West,16.1,-,0.02,Rain,Light Rain,280,2012-11-12 14:53:00
10:03 AM,48.2,44.6,87,29.97,9.0,West,15.0,-,0.00,Rain,Light Rain,280,2012-11-12 15:03:00
10:53 AM,48.0,43.0,83,29.98,6.0,West,11.5,-,0.02,Rain,Light Rain,260,2012-11-12 15:53:00
11:12 AM,48.2,42.8,82,29.99,7.0,West,12.7,-,0.02,Rain,Light Rain,260,2012-11-12 16:12:00
11:19 AM,48.2,42.8,82,30.00,8.0,West,11.5,-,0.02,Rain,Light Rain,260,2012-11-12 16:19:00
11:53 AM,46.9,41.0,80,29.99,8.0,West,15.0,-,0.05,Rain,Light Rain,260,2012-11-12 16:53:00
12:04 PM,46.4,42.8,87,30.00,10.0,West,18.4,24.2,0.00,Rain,Light Rain,260,2012-11-12 17:04:00
12:13 PM,46.4,39.2,76,29.99,10.0,West,17.3,26.5,0.01,Rain,Light Rain,260,2012-11-12 17:13:00
12:53 PM,44.1,37.0,76,30.00,10.0,WSW,15.0,-,0.02,Rain,Light Rain,240,2012-11-12 17:53:00
1:36 PM,42.8,35.6,76,30.02,10.0,West,15.0,-,0.01,,Overcast,260,2012-11-12 18:36:00
1:46 PM,42.8,35.6,76,30.01,10.0,WSW,17.3,-,0.01,,Overcast,250,2012-11-12 18:46:00
1:53 PM,42.1,36.0,79,30.01,10.0,West,15.0,-,0.01,,Overcast,260,2012-11-12 18:53:00
2:02 PM,42.8,35.6,76,30.01,10.0,WSW,15.0,-,N/A,,Overcast,250,2012-11-12 19:02:00
2:53 PM,42.1,33.1,70,30.04,10.0,WSW,20.7,25.3,N/A,,Overcast,250,2012-11-12 19:53:00
3:53 PM,39.9,28.9,65,30.06,10.0,WSW,15.0,-,N/A,,Scattered Clouds,250,2012-11-12 20:53:00
4:13 PM,39.2,30.2,70,30.07,10.0,WSW,13.8,-,N/A,,Mostly Cloudy,250,2012-11-12 21:13:00
4:53 PM,39.0,28.0,65,30.10,10.0,WSW,12.7,-,N/A,,Mostly Cloudy,250,2012-11-12 21:53:00
5:06 PM,39.2,26.6,61,30.10,10.0,WSW,17.3,-,N/A,,Mostly Cloudy,250,2012-11-12 22:06:00
5:53 PM,36.0,26.1,67,30.14,10.0,SW,10.4,-,N/A,,Partly Cloudy,220,2012-11-12 22:53:00
6:53 PM,36.0,27.0,70,30.16,10.0,WSW,9.2,-,N/A,,Mostly Cloudy,240,2012-11-12 23:53:00
7:53 PM,36.0,21.9,57,30.19,10.0,West,15.0,-,N/A,,Scattered Clouds,260,2012-11-13 00:53:00
8:53 PM,37.0,21.9,54,30.21,10.0,WSW,13.8,21.9,N/A,,Overcast,240,2012-11-13 01:53:00
9:53 PM,37.0,24.1,59,30.24,10.0,SW,12.7,-,N/A,,Overcast,220,2012-11-13 02:53:00
10:53 PM,36.0,23.0,59,30.26,10.0,SW,15.0,21.9,N/A,,Overcast,230,2012-11-13 03:53:00
11:53 PM,36.0,23.0,59,30.27,10.0,SW,12.7,-,N/A,,Overcast,230,2012-11-13 04:53:00